Погода в Мацзу

Тайвань     26°10′50″N   119°57′47″E
темп.,
°C
ветер,
м/с
пор.,
м/с
влажн.,
%
обл.,
%
осадки,
мм/ч
давл.,
гПа
погр.,
м
24 октября, вс
вс2423:00+21св131374100 1.5 10231318
02:00+20ссв111382100 2.3 10221183
05:00+19ссв111285100 1.6 10211007
08:00+20ссв101178100 2.8 10231074
11:00+20ссв101173100 0.1 10221032
14:00+20ссв9970100 0.1 1020985
17:00+20ссв91069100 0.1 1020999
20:00+21ссв9106799 0.1 10221011
25 октября, пн
пн2523:00+21ссв9106988 0.0 1022992
02:00+20ссв8968100 0.0 1020956
05:00+20ссв8966100 0.0 1020880
08:00+20ссв9966100 0.0 1021930
11:00+21св9106611 0.0 10211015
14:00+21св11126854 0.0 10191008
17:00+22св12137157 0.0 10191058
20:00+22св111271100 0.1 10201337
26 октября, вт
вт2623:00+22св111177100 0.4 10201037
02:00+22ссв9107699 1.4 10191015
05:00+22ссв997698 0.6 1018936
08:00+21ссв997891 0.9 1020873
11:00+22ссв887784 0.3 1020898
14:00+22ссв887841 0.4 1018794
17:00+22св777532 0.1 1018799
20:00+23св667211 0.4 1019836
27 октября, ср
ср2723:00+23св556716 0.1 10191027
02:00+23ссв667190 0.1 1018893
05:00+22ссв5678100 0.4 1019664
08:00+22ссв777594 0.9 1020850
11:00+22св777555 0.1 1020878
14:00+22св997795 0.4 1018869
17:00+22св111174100 0.2 10181086
20:00+22св10117464 0.3 10201106
28 октября, чт
чт2823:00+22св10117579 1.0 10201135
02:00+22св11117691 1.8 10201095
05:00+22св111172100 1.1 10201287
08:00+22св11116972 1.3 10221312
11:00+21св10106672 0.0 10221245
14:00+21св910640 0.0 10201062
17:00+22св9106510 0.0 10201170
20:00+22св9106459 0.0 10211384